This is the latest recevied weather packets stored in our database for station/object IN3XSV-15. If no packets are shown the sender has not sent any weather packets the latest 1 day(s).
| Time | Temp. | Humidity | Pressure | Rain* | Wind** | Luminosity | Snow |
|---|---|---|---|---|---|---|---|
| 1777957199 | 4.44° C | 82% | 855 hPa | 0 mm | 2.68 m/s, 180° | - | - |
| 1777956899 | 5° C | 82% | 855 hPa | 0 mm | 1.79 m/s, 180° | - | - |
| 1777956599 | 4.44° C | 82% | 855 hPa | 0 mm | 3.58 m/s, 180° | - | - |
| 1777956299 | 4.44° C | 82% | 855 hPa | 0 mm | 2.24 m/s, 180° | - | - |
| 1777955999 | 4.44° C | 82% | 855 hPa | 0 mm | 2.24 m/s, 180° | - | - |
| 1777955699 | 4.44° C | 81% | 855.1 hPa | 0 mm | 1.79 m/s, 180° | - | - |
| 1777955399 | 4.44° C | 81% | 855.2 hPa | 0 mm | 1.34 m/s, 180° | - | - |
| 1777955099 | 4.44° C | 81% | 855.2 hPa | 0 mm | 1.34 m/s, 157° | - | - |
| 1777954799 | 4.44° C | 81% | 855.2 hPa | 0 mm | 0.89 m/s, 180° | - | - |
| 1777954499 | 4.44° C | 82% | 855.2 hPa | 0 mm | 2.68 m/s, 180° | - | - |
| 1777954199 | 4.44° C | 83% | 855.2 hPa | 0 mm | 0.45 m/s, 180° | - | - |
| 1777953899 | 4.44° C | 83% | 855.1 hPa | 0 mm | 2.24 m/s, 180° | - | - |
| 1777953599 | 4.44° C | 83% | 855.3 hPa | 0 mm | 2.24 m/s, 180° | - | - |
| 1777953299 | 4.44° C | 83% | 855.4 hPa | 0 mm | 1.79 m/s, 180° | - | - |
| 1777952999 | 4.44° C | 84% | 855.4 hPa | 0 mm | 1.79 m/s, 180° | - | - |
| 1777952699 | 4.44° C | 84% | 855.5 hPa | 0 mm | 2.24 m/s, 202° | - | - |
| 1777952399 | 4.44° C | 84% | 855.5 hPa | 0 mm | 0.45 m/s, 180° | - | - |
| 1777952099 | 4.44° C | 84% | 855.6 hPa | 0 mm | 2.24 m/s, 180° | - | - |
| 1777951799 | 4.44° C | 84% | 855.7 hPa | 0 mm | 1.34 m/s, 180° | - | - |
| 1777951499 | 4.44° C | 84% | 855.7 hPa | 0 mm | 1.79 m/s, 180° | - | - |
| 1777951199 | 4.44° C | 85% | 855.9 hPa | 0 mm | 2.24 m/s, 180° | - | - |
| 1777950899 | 4.44° C | 85% | 855.9 hPa | 0 mm | 1.79 m/s, 180° | - | - |
| 1777950599 | 4.44° C | 85% | 855.9 hPa | 0 mm | 0.89 m/s, 180° | - | - |
| 1777950299 | 4.44° C | 85% | 855.7 hPa | 0 mm | 0.89 m/s, 180° | - | - |
| 1777949999 | 4.44° C | 85% | 856.2 hPa | 0 mm | 1.34 m/s, 180° | - | - |
* Rain latest hour (hover to see other rain measurements)
** Current wind speed in m/s (hover to see current wind gust speed)